Stündliche Wetter Abengourou

Heute, 21 Juni, Montag

Zeit Temperatur Niederschläge Wind Luftdruck Luftfeuchtigkeit
00:00 +24°C° 0.4 mm 1 m/S 743 mmHg 98%
01:00 +24°C° 0.1 mm 1 m/S 743 mmHg 99%
02:00 +22°C° 0.1 mm 0 m/S 743 mmHg 99%
03:00 +21°C° 0.1 mm 0 m/S 743 mmHg 99%
04:00 +21°C° 0.5 mm 0 m/S 743 mmHg 99%
05:00 +21°C° 0.5 mm 0 m/S 743 mmHg 99%
06:00 +21°C° 0.5 mm 0 m/S 743 mmHg 99%
07:00 +22°C° 1.6 mm 0 m/S 744 mmHg 99%
08:00 +22°C° 1.6 mm 0 m/S 744 mmHg 99%
09:00 +22°C° 1.6 mm 0 m/S 744 mmHg 99%
10:00 +22°C° 0.5 mm 0 m/S 744 mmHg 97%
11:00 +25°C° 0.5 mm 1 m/S 744 mmHg 96%
12:00 +25°C° 0.5 mm 1 m/S 744 mmHg 94%
13:00 +25°C° 0.7 mm 1 m/S 743 mmHg 95%
14:00 +25°C° 0.7 mm 1 m/S 743 mmHg 95%
15:00 +25°C° 0.7 mm 1 m/S 742 mmHg 95%
16:00 +25°C° 0.2 mm 1 m/S 742 mmHg 95%
17:00 +25°C° 0.2 mm 1 m/S 743 mmHg 96%
18:00 +24°C° 0.2 mm 1 m/S 743 mmHg 96%
19:00 +24°C° 0 mm 1 m/S 743 mmHg 96%
20:00 +24°C° 0 mm 1 m/S 743 mmHg 97%
21:00 +23°C° 0 mm 1 m/S 743 mmHg 97%
22:00 +23°C° 0 mm 1 m/S 743 mmHg 97%
23:00 +21°C° 0 mm 0 m/S 743 mmHg 98%

Morgen, 22 Juni, Dienstag

Zeit Temperatur Niederschläge Wind Luftdruck Luftfeuchtigkeit
00:00 +21°C° 0 mm 0 m/S 743 mmHg 99%
01:00 +21°C° 0 mm 0 m/S 743 mmHg 99%
02:00 +21°C° 0 mm 0 m/S 742 mmHg 99%
03:00 +21°C° 0 mm 0 m/S 742 mmHg 99%
04:00 +21°C° 0 mm 0 m/S 743 mmHg 99%
05:00 +21°C° 0 mm 0 m/S 743 mmHg 99%
06:00 +21°C° 0 mm 0 m/S 743 mmHg 99%
07:00 +22°C° 0 mm 0 m/S 743 mmHg 94%
08:00 +23°C° 0 mm 0 m/S 744 mmHg 89%
09:00 +24°C° 0 mm 0 m/S 744 mmHg 84%
10:00 +27°C° 0 mm 1 m/S 743 mmHg 79%
11:00 +27°C° 0 mm 1 m/S 743 mmHg 75%
12:00 +28°C° 0 mm 1 m/S 743 mmHg 70%
13:00 +29°C° 0.1 mm 1 m/S 742 mmHg 69%
14:00 +29°C° 0.1 mm 1 m/S 742 mmHg 69%
15:00 +29°C° 0.1 mm 1 m/S 741 mmHg 69%
16:00 +28°C° 0.2 mm 1 m/S 741 mmHg 74%
17:00 +27°C° 0.2 mm 1 m/S 741 mmHg 80%
18:00 +26°C° 0.2 mm 1 m/S 741 mmHg 85%
19:00 +26°C° 0 mm 1 m/S 742 mmHg 88%
20:00 +25°C° 0 mm 1 m/S 742 mmHg 91%
21:00 +25°C° 0 mm 1 m/S 742 mmHg 94%
22:00 +24°C° 0 mm 1 m/S 742 mmHg 94%
23:00 +24°C° 0 mm 1 m/S 742 mmHg 95%

übermorgen, 23 Juni, Mittwoch

Zeit Temperatur Niederschläge Wind Luftdruck Luftfeuchtigkeit
00:00 +24°C° 0 mm 1 m/S 742 mmHg 95%
01:00 +24°C° 0.3 mm 1 m/S 742 mmHg 96%
02:00 +23°C° 0.3 mm 1 m/S 742 mmHg 97%
03:00 +23°C° 0.3 mm 1 m/S 742 mmHg 98%
04:00 +23°C° 0.4 mm 1 m/S 742 mmHg 98%
05:00 +20°C° 0.4 mm 0 m/S 742 mmHg 98%
06:00 +20°C° 0.4 mm 0 m/S 742 mmHg 99%
07:00 +23°C° 0.1 mm 1 m/S 742 mmHg 94%
08:00 +24°C° 0.1 mm 1 m/S 743 mmHg 89%
09:00 +26°C° 0.1 mm 1 m/S 743 mmHg 84%
10:00 +27°C° 0 mm 1 m/S 743 mmHg 75%
11:00 +29°C° 0 mm 2 m/S 742 mmHg 66%
12:00 +31°C° 0 mm 2 m/S 742 mmHg 58%
13:00 +30°C° 0.4 mm 1 m/S 741 mmHg 66%
14:00 +29°C° 0.4 mm 1 m/S 741 mmHg 74%
15:00 +29°C° 0.4 mm 1 m/S 740 mmHg 82%
16:00 +28°C° 1.3 mm 1 m/S 740 mmHg 87%
17:00 +26°C° 1.3 mm 1 m/S 741 mmHg 92%
18:00 +25°C° 1.3 mm 1 m/S 741 mmHg 96%
19:00 +25°C° 0.3 mm 1 m/S 741 mmHg 97%
20:00 +24°C° 0.3 mm 2 m/S 742 mmHg 97%
21:00 +24°C° 0.3 mm 2 m/S 742 mmHg 98%
22:00 +24°C° 0 mm 1 m/S 742 mmHg 98%
23:00 +24°C° 0 mm 1 m/S 742 mmHg 98%

24 Juni, Donnerstag

Zeit Temperatur Niederschläge Wind Luftdruck Luftfeuchtigkeit
00:00 +24°C° 0 mm 1 m/S 742 mmHg 99%
01:00 +23°C° 0 mm 1 m/S 742 mmHg 99%
02:00 +23°C° 0 mm 1 m/S 742 mmHg 99%
03:00 +23°C° 0 mm 1 m/S 741 mmHg 99%
04:00 +21°C° 0 mm 0 m/S 742 mmHg 99%
05:00 +21°C° 0 mm 0 m/S 742 mmHg 99%
06:00 +21°C° 0 mm 0 m/S 742 mmHg 99%
07:00 +22°C° 0.1 mm 0 m/S 742 mmHg 96%
08:00 +25°C° 0.1 mm 1 m/S 743 mmHg 94%
09:00 +26°C° 0.1 mm 1 m/S 743 mmHg 91%
10:00 +27°C° 0.4 mm 1 m/S 743 mmHg 86%
11:00 +28°C° 0.4 mm 1 m/S 742 mmHg 80%
12:00 +29°C° 0.4 mm 1 m/S 742 mmHg 74%
13:00 +29°C° 1 mm 1 m/S 741 mmHg 78%
14:00 +29°C° 1 mm 1 m/S 741 mmHg 82%
15:00 +28°C° 1 mm 1 m/S 741 mmHg 87%
16:00 +27°C° 1.7 mm 1 m/S 741 mmHg 90%
17:00 +26°C° 1.7 mm 1 m/S 741 mmHg 93%
18:00 +25°C° 1.7 mm 2 m/S 741 mmHg 96%
19:00 +25°C° 1.8 mm 1 m/S 741 mmHg 97%
20:00 +24°C° 1.8 mm 1 m/S 742 mmHg 97%
21:00 +22°C° 1.8 mm 0 m/S 743 mmHg 98%
22:00 +24°C° 1.8 mm 1 m/S 743 mmHg 98%
23:00 +24°C° 1.8 mm 1 m/S 743 mmHg 99%

25 Juni, Freitag

Zeit Temperatur Niederschläge Wind Luftdruck Luftfeuchtigkeit
00:00 +24°C° 1.8 mm 1 m/S 742 mmHg 99%
01:00 +24°C° 0.4 mm 1 m/S 742 mmHg 99%
02:00 +22°C° 0.4 mm 0 m/S 742 mmHg 99%
03:00 +21°C° 0.4 mm 0 m/S 742 mmHg 99%
04:00 +21°C° 0.1 mm 0 m/S 742 mmHg 99%
05:00 +21°C° 0.1 mm 0 m/S 742 mmHg 99%
06:00 +21°C° 0.1 mm 0 m/S 742 mmHg 99%
07:00 +22°C° 0.1 mm 0 m/S 743 mmHg 97%
08:00 +22°C° 0.1 mm 0 m/S 743 mmHg 95%
09:00 +25°C° 0.1 mm 1 m/S 743 mmHg 94%
10:00 +26°C° 0.5 mm 1 m/S 743 mmHg 91%
11:00 +26°C° 0.5 mm 1 m/S 743 mmHg 88%
12:00 +27°C° 0.5 mm 1 m/S 743 mmHg 86%
13:00 +27°C° 0.5 mm 1 m/S 742 mmHg 85%
14:00 +27°C° 0.5 mm 1 m/S 742 mmHg 83%
15:00 +27°C° 0.5 mm 1 m/S 741 mmHg 82%
16:00 +27°C° 0.3 mm 1 m/S 741 mmHg 85%
17:00 +26°C° 0.3 mm 1 m/S 741 mmHg 87%
18:00 +26°C° 0.3 mm 1 m/S 741 mmHg 89%
19:00 +25°C° 0.1 mm 1 m/S 742 mmHg 92%
20:00 +24°C° 0.1 mm 1 m/S 742 mmHg 95%
21:00 +24°C° 0.1 mm 1 m/S 742 mmHg 99%
22:00 +23°C° 0 mm 1 m/S 742 mmHg 99%
23:00 +23°C° 0 mm 1 m/S 742 mmHg 99%

26 Juni, Samstag

Zeit Temperatur Niederschläge Wind Luftdruck Luftfeuchtigkeit
00:00 +23°C° 0 mm 1 m/S 743 mmHg 99%
01:00 +21°C° 0 mm 0 m/S 742 mmHg 99%
02:00 +21°C° 0 mm 0 m/S 742 mmHg 99%
03:00 +21°C° 0 mm 0 m/S 741 mmHg 99%
04:00 +21°C° 0 mm 0 m/S 741 mmHg 99%
05:00 +21°C° 0 mm 0 m/S 742 mmHg 99%
06:00 +21°C° 0 mm 0 m/S 742 mmHg 98%
07:00 +22°C° 0.1 mm 0 m/S 742 mmHg 94%
08:00 +23°C° 0.1 mm 0 m/S 743 mmHg 90%
09:00 +26°C° 0.1 mm 1 m/S 743 mmHg 87%
10:00 +27°C° 0.1 mm 1 m/S 743 mmHg 79%
11:00 +29°C° 0.1 mm 1 m/S 743 mmHg 72%
12:00 +31°C° 0.1 mm 1 m/S 742 mmHg 64%
13:00 +30°C° 1.1 mm 1 m/S 742 mmHg 69%
14:00 +30°C° 1.1 mm 1 m/S 741 mmHg 74%
15:00 +27°C° 1.1 mm 0 m/S 740 mmHg 80%
16:00 +26°C° 0.5 mm 0 m/S 740 mmHg 85%
17:00 +25°C° 0.5 mm 0 m/S 740 mmHg 89%
18:00 +24°C° 0.5 mm 0 m/S 740 mmHg 94%
19:00 +26°C° 0.1 mm 1 m/S 741 mmHg 95%
20:00 +25°C° 0.1 mm 1 m/S 741 mmHg 96%
21:00 +25°C° 0.1 mm 1 m/S 742 mmHg 97%
22:00 +24°C° 0 mm 1 m/S 742 mmHg 97%
23:00 +22°C° 0 mm 0 m/S 742 mmHg 98%
Mehr zeigen

Wir brauchen deine Erlaubnis

Meteoprog und unser Service Anbieter werden persönliche Daten aufbewahren, so wie Cookies, Geräte Bezeichnung oder ähnliche Technologien von deinem Gerät und Prozess, so wie Persönliche Daten Inhalte und Werbungen, genauso wie social Media und den Verkehr zu analysieren.

  • Aufbewahrung und/oder Zugang zu deiner Geräte Informationen.

    Cookies, Geräte Bezeichnung oder andere Informationen, können aufbewahrt oder Zugang zu deinem Gerät erhalten, für den Grund, der oben angegeben wird.

  • Personalisierte Werbung und Inhalte, Messungen, Einblick in das Publikum und Produkt Entwicklung.

    Werbungen und Inhalte können personalisiert werden, basierend auf ein Profil. Mehr Daten können besser personalisierte Werbungen und Inhalte hinzufügen. Werbung und Inhalte können gezeigt und gemessen werden. Einblicke über das Publikum, welche die Werbung gesehen haben und den Inhalt, können abgeleitet werden. So wie Daten können genutzt werden, um es zu verbessern oder die Benutzer Erfahrung zu verbessern das System und die Software.

Wenn du “Ich stimme zu” klickst, erlaubst du uns, die Cookies zu benutzen die Geräte Bezeichnung, den Web oder ähnliche Technologien zu benutzen. Deine Settings, können in deinem Gerät bei deinem Browser geändert werden.

Für den bestimmten Zweck, berechtigten Interessen beruhen darauf, mehr als auf den Inhalt. Du kannst mehr darüber in unseren Privaten und Cookie Politik lesen.